一网星座-0436星 (ONEWEB-0436 )

导读

ONEWEB-0436是英国OneWeb项目下的低轨宽带互联网卫星,于2022年2月10日发射,属于OneWeb第一代全球卫星通信星座组网卫星。该卫星质量约百公斤级,运行在约1200公里的近地轨道,主要为全球各区域提供宽带互联网接入服务,助力OneWeb完成初期星座部署,推动实现全球卫星网络覆盖。

Basic Information
目录编号:
51633
目录名称:
ONEWEB-0436
国际标识:
2022-012M
轨道中心:
EARTH
卫星名称:
一网星座-0436星
卫星全名:
一网星座-0436星 (ONEWEB-0436 )
卫星状态:
在轨 (已飞行1675 天)
发射日期:
2022-02-10 UTC
国别 :
英国 (GB)
星等 :
--
This satellite is enrolled in the Space Conjunction Data Service (SCDS) and the current flight risk assessment level is: No High Risk
Orbit Information
数据来源 国际轨道数据 AOE轨道数据
星历时间 2026-09-12T02:42:25+0800
11小时前
查看轨道信息
2026-09-07T03:00:00+0800
5天前
查看轨道信息
半长轴 7571.849km 7571.845km
偏心率 0.0002041 0.0001955
轨道倾角 87.921° 87.921°
近地点辐角 96.274° 85.310°
升交点赤经 348.655° 349.643°
平近点角 263.862° 28.590°
近地点 1192.166km 1192.227km
远地点 1195.258km 1195.189km
周期 109.286分钟 109.285分钟
每日圈数 13.176495 13.176506
Detailed Information
平衡模式:
三轴稳定
覆盖范围:
全球
运营商:
一网卫星公司
运营商所在国:
英国
制造商(研发单位):
一网卫星公司
制造商所在国:
英国
使用方式:
暂无
Satellite Introduction
OneWeb卫星网络由648颗重约125公斤的微型卫星组成,运行在1200公里的轨道上。 每颗卫星都能够提供至少每秒8千兆位的吞吐量,以使用其高吞吐量的Ku频段有效载荷为家庭和移动平台提供互联网接入。该卫星仍在工作。
2D Orbit Map
3D Orbit Map
Orbit Altitude Analysis Chart
Orbit Inclination Analysis Chart
Orbit Comprehensive Analysis Chart
View Comprehensive Chart
Miss Distance Evolution Trend with All Objects
Collision Probability Evolution Trend with All Objects